Weather History for CXDK - November, 2012

Change the Weather History Date:

Tuesday, November 20, 2012

  Actual Average Record
Temperature  
Mean Temperature 0 °F -  
Max Temperature 6 °F - - ()
Min Temperature -6 °F - - ()
Degree Days  
Heating Degree Days 65    
Moisture  
Dew Point -3 °F    
Average Humidity 79    
Maximum Humidity 86    
Minimum Humidity 67    
Precipitation  
Precipitation 0.00 in - - ()
Sea Level Pressure  
Sea Level Pressure 30.23 in    
Wind  
Wind Speed 18 mph ()    
Max Wind Speed 41 mph    
Max Gust Speed -    
T = Trace of Precipitation, MM = Missing Value Source: Averaged Metar Reports

Daily Weather History Graph

Daily Weather History Graph

Search for Another Location

Airport or City:

Trip Planner

Search our weather history database for the weather conditions in past years. The results will help you decide how hot, cold, wet, or windy it might be!

Date:

Astronomy

Nov. 20, 2012 Rise Set
Actual Time 9:39 AM MST 4:27 PM MST
Civil Twilight 8:44 AM MST 5:21 PM MST
Nautical Twilight 7:49 AM MST 6:17 PM MST
Astronomical Twilight 6:57 AM MST 7:08 PM MST
Moon 2:10 PM MST (11/20) No Moon Set
Length of Visible Light 8h 36m
Length of Day
6h 48m
First Quarter, 52% of the Moon is Illuminated
Nov 20
First Quarter
Nov 28
Full
Dec 6
Last Quarter
Dec 13
New
Dec 19
First Quarter

Hourly Weather History & Observations

Time (MST) Temp. Windchill Dew Point Humidity Pressure Visibility Wind Dir Wind Speed Gust Speed Precip Events Conditions
12:00 AM 5.0 °F -10.0 °F -2.2 °F 72% 30.16 in - North 10.4 mph - N/A   Unknown
1:00 AM 5.4 °F -9.6 °F -2.2 °F 71% 30.17 in - North 10.4 mph - N/A   Unknown
2:00 AM 4.6 °F -10.4 °F -3.1 °F 70% 30.19 in - North 10.4 mph - N/A   Unknown
3:00 AM 2.3 °F -10.2 °F -3.1 °F 78% 30.19 in - North 6.9 mph - N/A   Unknown
4:00 AM -0.8 °F -30.2 °F -4.7 °F 83% 30.21 in - North 41.4 mph - N/A   Unknown
5:00 AM -0 °F - -4 °F 74% 30.21 in - Calm Calm - -  
5:00 AM -0.2 °F -10.1 °F -4.2 °F 83% 30.21 in - North 4.6 mph - N/A   Unknown
6:00 AM 1.2 °F -23.8 °F -2.7 °F 83% 30.22 in - North 28.8 mph - N/A   Unknown
7:00 AM 1.2 °F -24.5 °F -2.6 °F 84% 30.22 in - North 31.1 mph - N/A   Unknown
8:00 AM 0.9 °F -24.3 °F -2.6 °F 86% 30.22 in - North 28.8 mph - N/A   Unknown
9:00 AM 0.9 °F -25.0 °F -2.4 °F 86% 30.23 in - North 31.1 mph - N/A   Unknown
10:00 AM 1.4 °F -23.5 °F -2.0 °F 86% 30.24 in - North 28.8 mph - N/A   Unknown
11:00 AM 2 °F - -2 °F 76% 30.25 in - Calm Calm - -  
11:00 AM 1.9 °F -26.1 °F -1.8 °F 84% 30.25 in - North 40.3 mph - N/A   Unknown
12:00 PM 3.2 °F -22.9 °F -0.9 °F 83% 30.25 in - North 34.5 mph - N/A   Unknown
1:00 PM 4.8 °F -12.5 °F -0.4 °F 79% 30.25 in - North 13.8 mph - N/A   Unknown
2:00 PM 6.3 °F -19.8 °F -1.3 °F 71% 30.24 in - North 39.1 mph - N/A   Unknown
3:00 PM 5.7 °F -9.9 °F -0.2 °F 77% 30.24 in - North 11.5 mph - N/A   Unknown
4:00 PM 5.2 °F -13.3 °F -2.0 °F 72% 30.24 in - North 16.1 mph - N/A   Unknown
5:00 PM 4 °F - -2 °F 67% 30.25 in - Calm Calm - -  
5:00 PM 3.7 °F -11.6 °F -1.7 °F 78% 30.25 in - North 10.4 mph - N/A   Unknown
6:00 PM 0.3 °F - -3.5 °F 84% 30.25 in - North 1.2 mph - N/A   Unknown
7:00 PM -0.2 °F -10.1 °F -4.0 °F 84% 30.25 in - North 4.6 mph - N/A   Unknown
8:00 PM 0.3 °F -26.8 °F -3.3 °F 85% 30.25 in - North 34.5 mph - N/A   Unknown
9:00 PM -2.4 °F -30.2 °F -6.7 °F 82% 30.25 in - North 33.4 mph - N/A   Unknown
10:00 PM -6.0 °F -35.8 °F -9.4 °F 85% 30.25 in - North 35.7 mph - N/A   Unknown
11:00 PM -3 °F - -7 °F 74% 30.24 in - Calm Calm - -  
11:00 PM -3.3 °F -31.0 °F -7.1 °F 84% 30.24 in - North 32.2 mph - N/A   Unknown